EUTELSAT HOT BIRD 13C   
1 33459U 08065A   19265.78452265  .00000079  00000-0  00000+0 0  9990
2 33459   0.0622 328.4373 0004326 189.2227 139.1278  1.00275069 39588
EUTELSAT 48D            
1 33460U 08065B   19266.09365531  .00000115  00000-0  00000+0 0  9997
2 33460   0.0219   7.3496 0004100 201.8736 234.2034  1.00271235 39451
ARIANE 5 DEB [SYLDA]    
1 33461U 08065C   19264.96245707  .00001170  00000-0  43641-3 0  9998
2 33461   4.1981 228.7351 6362182 183.6430 167.3181  3.48096862113124
ARIANE 5 R/B            
1 33462U 08065D   19254.35363820  .00000282  00000-0  11261-3 0  9994
2 33462   4.5360   0.1041 7170311 284.5054  11.6596  2.40299963 91981